Location: Asheville, NC
(35.6000°N, 82.5500°W)
Time: 20:15:55

HO-68 - Pass Details

Date: 11 January 2018
Orbit: 1193 x 1204 km, 100.1° (Epoch: 21 March)

Event Time Altitude Azimuth Distance (km) Brightness Sun altitude
Rises 18:24:23 0° 155° (SSE) 4,088 ? -9.7°
Reaches altitude 10° 18:27:00 10° 153° (SSE) 3,126 ? -10.2°
Maximum altitude 18:34:06 70° 72° (ENE) 1,268 ? -11.6°
Drops below altitude 10° 18:41:12 10° 351° (N) 3,134 ? -13.0°
Sets 18:43:50 0° 349° (N) 4,100 ? -13.5°
